Regional Weather Roundup
Issued by NWS New Orleans/Baton Rouge, LA

Home | Current Version | Previous Version | Graphics & Text | Print | Product List | Glossary On
Versions: 1 2 3 4 5 6 7 8 9 10 11 12 13 14 15 16 17 18 19 20 21 22 23 24 25 26 27 28 29 30 31 32 33 34 35 36 37 38 39 40 41 42 43 44 45 46 47 48 49 50
765
ASUS44 KLIX 290410
RWRLIX
NEW ORLEANS REGIONAL WEATHER ROUNDUP
NATIONAL WEATHER SERVICE NEW ORLEANS LA
1100 PM CDT MON JUL 28 2014

NOTE: "FAIR" INDICATES FEW OR NO CLOUDS BELOW 12,000 FEET WITH NO
      SIGNIFICANT WEATHER AND/OR OBSTRUCTIONS TO VISIBILITY.
      SKY/WX - SKY CONDITION AND SIGNIFICANT WEATHER.
      TMP - AIR TEMPERATURE.     DP    - DEWPOINT TEMPERATURE.
      RH  - RELATIVE HUMIDITY.   PRES  - PRESSURE.
      HI  - HEAT INDEX.          WCI   - WIND CHILL INDEX.

*  THESE STATIONS ARE NOT NWS OR FAA STATIONS AND ARE NOT UNDER
   NWS QUALITY CONTROL.

LAZ038-040-048-061>063-065>067-069-290500-
SOUTHEAST LOUISIANA

CITY           SKY/WX    TMP DP  RH WIND       PRES   REMARKS
N.O. AUDUBON     N/A     85  78  80 MISG        N/A  HX  96
N.O. INTL ARPT MOCLDY    83  77  82 W9        30.02R
N.O. LAKEFRONT CLOUDY    87  79  76 NW17      30.02S HX 101
N.O. DOWNTOWN*   N/A     88  73  62 W6        30.03R HX  96
SLIDELL        CLOUDY    79  74  84 CALM      30.01S
BATON ROUGE    CLOUDY    78  72  81 W3        30.04S
BOOTHVILLE     PTCLDY    84  80  88 W7        30.03R HX  97
BELLE CHASSE   MOCLDY    83  75  77 W3        30.01F
BOGALUSA*        N/A     78  74  85 CALM      30.03F
GALLIANO*      NOT AVBL
NEW ROADS*       N/A     75  74  96 CALM      30.04S
GONZALES*        N/A     80  75  84 NW6       30.03S
HAMMOND*       MOCLDY    81  73  78 NW3       30.04F
HOUMA*         MOCLDY    82  76  83 CALM      30.04S
PORT FOURCHON* CLEAR     86  79  79 W12       30.05S HX  99

$$

MSZ070-080>082-290500-
SOUTHERN MISSISSIPPI

CITY           SKY/WX    TMP DP  RH WIND       PRES   REMARKS
MCCOMB         PTCLDY    77  73  87 NW6       30.04F
GULFPORT       PTCLDY    86  77  74 NW6       29.99S HX  97
BILOXI         PTCLDY    85  78  79 VRB5      30.00R HX  96
PASCAGOULA     PTCLDY    81  75  82 W5        29.99R

$$

COASTAL OBSERVATIONS
LAKE AND NEARSHORE STATIONS

STATION/POSITION TIME  TEMP    WIND        PRES    WAVE
                       AIR SEA DIR/SP/G            HT/PER
                 (UTC) (F)     (DEG/KT/KT) (MB)    (FT/S)
PASCAGOULA       0400   86     280/  5/  7 1015.2
WAVELAND YACHT   0400   81     310/  5/  9 1015.5
GRAND ISLE       0400   86 88  290/ 14/ 16 1017.5
SOUTHWEST PASS   0400   85 85  300/ 10/ 19 1017.4
NEW CANAL        0400   87 85  270/  7/ 12 1017.0
SHELL BEACH      0400   85 83  310/  5/  6 1016.3

OFFSHORE STATIONS

STATION/POSITION TIME  TEMP    WIND        PRES    WAVE
                       AIR SEA DIR/SP/G            HT/PER
                 (UTC) (F)     (DEG/KT/KT) (MB)    (FT/S)
64 S DAUPHIN ISL 0348   85 86  260/ 16/ 19 1016.2

$$




USA.gov is the U.S. government's official web portal to all federal, state and local government web resources and services.